ABS-2A (MONGOLSAT-1) (41588 NORAD) Tracking and Keplerian Element Data

This shows tracking and keplerian element data for the satellite.

Feedback or suggestion? Click here.




ElementValue
Catalog41588
NameABS-2A (MONGOLSAT-1)
Epoch Orbit772
Epoch Day197.97376468
Epoch Year2018
RAAN93.5186
Inclination0.0201
Eccentricity0.0001832
Argument of Perigee282.0627
Mean Anonmoly344.4063
Mean Motion1.00270672
Decay Rate-1.04E-06
L11 41588U 16038A 18197.97376468 -.00000104 00000-0 00000-0 0 9996
L22 41588 0.0201 93.5186 0001832 282.0627 344.4063 1.00270672 7729

Live tracking and technical data element details for ABS-2A (MONGOLSAT-1) (NORAD 41588). ABS-2A (MONGOLSAT-1) can be tracked NOW for your location showing map with azimuth and elevation plus other details from your city location.

Track the satellite on the map from your city or location and see movement details for azimuth, elevation, latitude, longitude, range, height, and movement on the map or in text.







IsCatalogInMostPopularTable: catalog: 41588, numindb: 96
Update: records affected: 1



GetName: 41588 ABS-2A (MONGOLSAT-1)

Hit Count: updated at: Wed, 18 Jul 2018 20:25:00 GMT